Regional Weather Roundup
Issued by NWS

Home | Current Version | Previous Version | Text Only | Print | Product List | Glossary Off
Versions: 1 2 3 4 5 6 7 8 9 10 11 12 13 14 15 16 17 18 19 20 21 22 23 24 25 26 27 28 29 30 31 32 33 34 35 36 37 38 39 40 41 42 43 44 45 46 47 48 49 50

000
ASUS44 KMEG 061710
RWRTN
TENNESSEE HOURLY STATE WEATHER ROUNDUP
NATIONAL WEATHER SERVICE MEMPHIS TN
1100 AM CST TUE DEC 06 2016

TNZ002-004-019-021-049-052-054-088>092-061800-
WEST TENNESSEE

CITY           SKY/WX    TMP DP  RH WIND       PRES   REMARKS
MEMPHIS INTL   CLOUDY    46  45  93 NW9       29.87S
NWS MEMPHIS      N/A     46 N/A N/A MISG        N/A
JACKSON        CLOUDY    47  44  90 NW13      29.84R
DYERSBURG      CLOUDY   N/A N/A N/A N12       29.86R
UNION CITY     CLOUDY    43  43 100 NW14      29.83R
HUNTINGDON     CLOUDY    46  45  93 NW7       29.81R
LEXINGTON      CLOUDY    46  45  93 NW9       29.80R
$$

TNZ008-025-027-028-033-062-065-066-061800-
NORTH MIDDLE TENNESSEE

CITY           SKY/WX    TMP DP  RH WIND       PRES   REMARKS
NASHVILLE      DRZL/FOG  54  51  90 W7        29.69S VSB 1
PORTLAND       CLOUDY    48  48 100 NW5G12    29.70R FOG
CLARKSVILLE    CLOUDY    46  43  89 NW13      29.75R
SMYRNA         CLOUDY    56  54  93 W7        29.70R
CROSSVILLE     LGT RAIN  52  50  93 S5        29.69F
$$

TNZ061-075-076-078-094-096-097-061800-
SOUTH MIDDLE TENNESSEE

CITY           SKY/WX    TMP DP  RH WIND       PRES   REMARKS
FAYETTEVILLE   PTSUNNY   59  57  94 SW12      29.71R
TULLAHOMA      CLOUDY    55  55 100 SW12      29.69S
WINCHESTER     CLOUDY    57  55  94 W9        29.70R
MCMINNVILLE    PTSUNNY   55  55 100 SW8       29.68R
COLUMBIA       CLOUDY   N/A N/A N/A W8        29.73R
SHELBYVILLE    CLOUDY    59  59 100 SW9       29.69S
$$

TNZ017-018-042-046-047-061800-
NORTHEAST TENNESSEE

CITY           SKY/WX    TMP DP  RH WIND       PRES   REMARKS
TRI CITIES     RAIN      46  44  93 E8        29.74F FOG
ELIZABETHTON   RAIN      46  43  87 VRB6G13   29.76F
$$

TNZ012-013-036-069-073-074-061800-
CENTRAL EAST TENNESSEE

CITY           SKY/WX    TMP DP  RH WIND       PRES   REMARKS
KNOXVILLE      HVY RAIN  50  48  93 W15G24    29.73R FOG
OAK RIDGE      LGT RAIN  52  49  89 CALM      29.71F FOG
DOWNTOWN KNOXV CLOUDY    50  50 100 CALM      29.70R FOG
GATLINBURG     CLOUDY    48  48 100 CALM      29.68R
MORRISTOWN     CLOUDY    50  48  93 E7        29.67F FOG
JACKSBORO      CLOUDY    50  50 100 N5        29.72R FOG
$$

TNZ083-085-099-061800-
SOUTHEAST TENNESSEE

CITY           SKY/WX    TMP DP  RH WIND       PRES   REMARKS
CHATTANOOGA    PTSUNNY   57  53  86 S8        29.71F FOG
$$

SKY/WX REPORTED AS FAIR MEANS FEW OR NO CLOUDS BELOW
12 THOUSAND FEET.





USA.gov is the U.S. government's official web portal to all federal, state and local government web resources and services.